FW5373 Weather Reports


time (UTC)temp
C
wind
direction
speed
KPH
gust
KPH
rain 1hr
cm
rain 24hr
cm
rain mn
cm
humidity
%
barometer
mb
20260505193054 9 301 4.8 16.1 0.13 0.48 0.46 88 1010.8
20260505191605 9 27 3.2 11.3 0.15 0.46 0.43 89 1011.0
20260505190051 9 331 1.6 6.4 0.15 0.43 0.41 88 1011.4
20260505184552 10 346 1.6 9.7 0.15 0.41 0.38 88 1011.9
20260505183057 10 341 0.0 6.4 0.10 0.36 0.33 88 1011.6
20260505181556 10 304 1.6 8.0 0.05 0.30 0.28 85 1011.2
20260505180100 10 332 0.0 16.1 0.03 0.28 0.25 83 1011.4
20260505174553 10 0 1.6 8.0 0.00 0.25 0.23 80 1011.0
20260505173111 10 360 3.2 17.7 0.00 0.25 0.23 75 1010.9
20260505171610 10 16 1.6 11.3 0.00 0.25 0.23 75 1010.7
20260505170055 11 360 3.2 12.9 0.00 0.25 0.23 75 1010.8
20260505164601 11 329 4.8 12.9 0.00 0.25 0.23 73 1010.6
20260505163055 11 30 1.6 16.1 0.00 0.25 0.23 75 1010.3
20260505161557 11 59 1.6 8.0 0.00 0.25 0.23 74 1010.3
20260505153053 11 46 3.2 11.3 0.00 0.25 0.23 77 1009.6
20260505151555 10 40 3.2 14.5 0.00 0.25 0.23 77 1009.6
20260505150109 10 44 3.2 16.1 0.00 0.25 0.23 80 1009.1
20260505130103 10 28 1.6 12.9 0.00 0.20 0.15 74 1010.3
20260505124558 10 326 3.2 12.9 0.00 0.20 0.15 72 1010.6
20260505123104 10 351 4.8 14.5 0.00 0.20 0.15 70 1009.5
20260505121627 11 15 4.8 16.1 0.00 0.20 0.15 66 1009.9
20260505120057 11 350 4.8 17.7 0.00 0.20 0.15 66 1009.3
20260505114555 11 242 3.2 14.5 0.00 0.20 0.15 70 1009.0
20260505113104 11 27 1.6 12.9 0.00 0.20 0.15 71 1008.2
20260505111556 12 55 4.8 12.9 0.00 0.20 0.15 70 1007.3
20260505101557 12 252 3.2 14.5 0.03 0.20 0.15 72 1008.6
20260505100128 12 342 4.8 16.1 0.03 0.20 0.15 75 1007.8
20260505094554 12 339 4.8 17.7 0.03 0.20 0.15 74 1007.3
20260505093054 13 5 3.2 9.7 0.03 0.20 0.15 78 1006.8
20260505091616 13 291 4.8 19.3 0.00 0.18 0.13 73 1006.5
20260505090101 13 315 3.2 20.9 0.00 0.18 0.13 77 1005.7
20260505084553 13 55 4.8 17.7 0.00 0.18 0.13 83 1005.7
20260505083054 13 348 1.6 12.9 0.00 0.18 0.13 91 1005.7
20260505081554 13 329 3.2 9.7 0.00 0.18 0.13 92 1005.6
20260505080215 14 220 0.0 4.8 0.00 0.18 0.13 94 1005.8
20260505074556 14 0 1.6 4.8 0.00 0.18 0.13 94 1006.1
20260505073100 14 211 1.6 4.8 0.00 0.18 0.13 94 1006.1
20260505071551 14 210 0.0 3.2 0.00 0.18 0.13 94 1005.7
20260505070057 14 210 0.0 4.8 0.00 0.18 0.13 93 1005.3
20260505064607 14 209 1.6 4.8 0.00 0.18 0.13 93 1005.9
20260505063054 14 0 0.0 4.8 0.00 0.18 0.13 92 1005.6
20260505061551 15 0 0.0 1.6 0.05 0.18 0.13 92 1004.4
20260505060058 15 0 0.0 3.2 0.13 0.18 0.13 91 1004.5
20260505054620 15 208 1.6 4.8 0.15 0.18 0.13 90 1004.8
20260505053058 16 200 1.6 9.7 0.15 0.18 0.13 87 1004.2
20260505051556 17 302 1.6 6.4 0.10 0.13 0.08 84 1005.2
20260505041609 19 171 1.6 16.1 0.00 0.03 0.03 76 1001.7
20260505040058 19 192 1.6 8.0 0.00 0.03 0.03 77 1001.5
20260505034552 19 180 3.2 12.9 0.00 0.03 0.03 77 1001.4
20260505033054 19 180 1.6 8.0 0.00 0.03 0.03 77 1001.4
20260505031555 18 184 1.6 8.0 0.00 0.03 0.03 77 1001.7
20260505024601 19 188 3.2 8.0 0.00 0.03 0.03 76 1001.8
20260505023058 19 190 1.6 8.0 0.00 0.03 0.03 75 1001.7
20260505021558 19 202 1.6 11.3 0.00 0.03 0.03 75 1001.7
20260505020104 20 192 3.2 11.3 0.00 0.03 0.03 74 1001.3
20260505014551 20 184 3.2 8.0 0.00 0.03 0.03 72 1001.2
20260505013054 20 173 0.0 6.4 0.00 0.03 0.03 71 1001.2
20260505011556 20 182 1.6 8.0 0.00 0.03 0.03 69 1001.1
20260505010111 21 194 4.8 19.3 0.00 0.03 0.03 67 1000.9
20260505004554 21 165 3.2 14.5 0.00 0.03 0.03 67 1000.8
20260505003054 22 180 4.8 20.9 0.00 0.03 0.03 64 1000.7
20260505001552 22 192 6.4 20.9 0.00 0.03 0.03 60 1000.8
20260505000101 23 191 4.8 17.7 0.00 0.03 0.03 60 1000.8
20260504234554 23 205 6.4 17.7 0.00 0.03 0.03 59 1000.9
20260504233057 23 191 4.8 17.7 0.00 0.03 0.03 59 1001.3
20260504231554 24 186 1.6 17.7 0.00 0.03 0.03 58 1001.6
20260504230114 24 198 6.4 20.9 0.00 0.03 0.03 57 1002.0
20260504224612 24 179 8.0 29.0 0.00 0.03 0.03 58 1002.2
20260504223054 25 193 8.0 29.0 0.00 0.03 0.03 57 1002.2
20260504221556 24 157 6.4 14.5 0.00 0.03 0.03 60 1002.4
20260504220100 23 192 8.0 25.7 0.00 0.03 0.03 59 1002.5
20260504214555 25 186 9.7 29.0 0.00 0.03 0.03 56 1002.7
20260504213100 24 165 9.7 25.7 0.00 0.03 0.03 58 1002.7
20260504211600 24 165 9.7 35.4 0.00 0.03 0.03 59 1002.8
20260504204556 24 142 11.3 43.5 0.00 0.03 0.03 56 1002.7
20260504203056 25 186 11.3 37.0 0.00 0.03 0.03 57 1003.0
20260504201611 24 194 6.4 29.0 0.00 0.03 0.03 58 1003.2
20260504194551 24 155 9.7 32.2 0.00 0.03 0.03 57 1003.4